This is the latest recevied weather packets stored in our database for station/object EA3ANS-1. If no packets are shown the sender has not sent any weather packets the latest 10 day(s).
| Time | Temp. | Humidity | Pressure | Rain* | Wind** | Luminosity | Snow |
|---|---|---|---|---|---|---|---|
| 1787683548 | 28.89° C | - | 1010.8 hPa | 0 mm | 0 m/s | - | - |
| 1787682951 | 28.89° C | - | 1010.8 hPa | 0 mm | 1.79 m/s, 224° | - | - |
| 1787682353 | 28.89° C | - | 1010.7 hPa | 0 mm | 1.34 m/s, 248° | - | - |
| 1787681750 | 29.44° C | - | 1010.7 hPa | 0 mm | 1.79 m/s, 200° | - | - |
| 1787681147 | 29.44° C | - | 1010.5 hPa | 0 mm | 4.02 m/s, 269° | - | - |
| 1787680550 | 30° C | - | 1010.3 hPa | 0 mm | 3.58 m/s, 249° | - | - |
| 1787679950 | 29.44° C | - | 1010.3 hPa | 0 mm | 4.02 m/s, 240° | - | - |
| 1787679353 | 30° C | - | 1010.3 hPa | 0 mm | 4.92 m/s, 218° | - | - |
| 1787678756 | 30.56° C | - | 1010.2 hPa | 0 mm | 4.02 m/s, 218° | - | - |
| 1787678154 | 31.11° C | - | 1010 hPa | 0 mm | 4.02 m/s, 259° | - | - |
| 1787677558 | 31.67° C | - | 1009.9 hPa | 0 mm | 3.13 m/s, 270° | - | - |
| 1787676946 | 31.67° C | - | 1009.8 hPa | 0 mm | 4.02 m/s, 177° | - | - |
| 1787676348 | 31.67° C | - | 1009.6 hPa | 0 mm | 3.58 m/s, 214° | - | - |
| 1787675740 | 31.67° C | - | 1009.5 hPa | 0 mm | 5.81 m/s, 217° | - | - |
| 1787675138 | 32.22° C | - | 1009.5 hPa | 0 mm | 3.58 m/s, 204° | - | - |
| 1787674540 | 32.22° C | - | 1009.3 hPa | 0 mm | 5.36 m/s, 214° | - | - |
| 1787673940 | 32.78° C | - | 1009.2 hPa | 0 mm | 3.58 m/s, 242° | - | - |
| 1787673340 | 33.33° C | - | 1009.3 hPa | 0 mm | 3.58 m/s, 242° | - | - |
| 1787672728 | 33.89° C | - | 1009.1 hPa | 0 mm | 2.24 m/s, 249° | - | - |
| 1787672662 | 33.89° C | - | 1009 hPa | 0 mm | 3.58 m/s, 297° | - | - |
| 1787672131 | 33.89° C | - | 1009 hPa | 0 mm | 3.58 m/s, 297° | - | - |
| 1787671533 | 33.89° C | - | 1009.2 hPa | 0 mm | 2.24 m/s, 339° | - | - |
| 1787670927 | 34.44° C | - | 1009.3 hPa | 0 mm | 2.68 m/s, 314° | - | - |
| 1787670330 | 33.89° C | - | 1009.4 hPa | 0 mm | 2.68 m/s, 297° | - | - |
| 1787669723 | 33.89° C | - | 1009.5 hPa | 0 mm | 2.68 m/s, 321° | - | - |
* Rain latest hour (hover to see other rain measurements)
** Current wind speed in m/s (hover to see current wind gust speed)